This demonstration page uses our WeatherBlox Daily Observations layout. Learn more.

Left ArrowRight Arrow

39.01783, -85.05884

Hourly Observations for November 8, 2018

Temp ( °F °C ) Dew Point ( °F °C ) Humidity (%) Winds ( mph kmh ) Pressure ( in mb ) Visibility ( mi km ) Precip ( " mm )
12:52 am 00:52 Partly Cloudy 36 2.2 31 -0.6 82 82 N 10 17 30.27 1025 10 16 0.00 0.00
1:52 am 01:52 Mostly Clear 35 1.7 30 -1.1 82 82 N 8 13 30.27 1025 10 16 0.00 0.00
2:52 am 02:52 Clear 34 1.1 30 -1.1 85 85 N 8 13 30.27 1025 10 16 0.00 0.00
3:52 am 03:52 Mostly Clear 33 0.6 29 -1.7 85 85 N 7 11 30.28 1025 10 16 0.00 0.00
4:52 am 04:52 Clear 32 0 29 -1.7 88 88 N 7 11 30.29 1026 10 16 0.00 0.00
5:52 am 05:52 Clear 33 0.6 29 -1.7 85 85 NNE 7 11 30.30 1026 10 16 0.00 0.00
6:52 am 06:52 Mostly Cloudy 33 0.6 29 -1.7 85 85 NNE 7 11 30.31 1026 10 16 0.00 0.00
7:52 am 07:52 Mostly Cloudy 33 0.6 29 -1.7 85 85 NNE 9 15 30.32 1027 10 16 0.00 0.00
8:52 am 08:52 Mostly Cloudy 36 2.2 30 -1.1 79 79 NE 8 13 30.36 1028 10 16 0.00 0.00
9:52 am 09:52 Cloudy 38 3.3 30 -1.1 73 73 ENE 10 17 30.36 1028 10 16 0.00 0.00
10:52 am 10:52 Cloudy 40 4.4 30 -1.1 68 68 NE 8 13 30.36 1028 10 16 0.00 0.00
11:52 am 11:52 Cloudy 41 5 30 -1.1 65 65 ENE 10 17 30.35 1028 10 16 0.00 0.00
12:52 pm 12:52 Cloudy 41 5 30 -1.1 65 65 E 10 17 30.32 1027 10 16 0.00 0.00
1:52 pm 13:52 Cloudy 42 5.6 30 -1.1 62 62 ENE 8 13 30.31 1027 10 16 0.00 0.00
2:52 pm 14:52 Cloudy 42 5.6 31 -0.6 65 65 ENE 7 11 30.31 1026 10 16 0.00 0.00
3:52 pm 15:52 Cloudy 43 6.1 31 -0.6 63 63 NE 10 17 30.30 1026 10 16 0.00 0.00
4:52 pm 16:52 Cloudy 43 6.1 31 -0.6 63 63 ENE 12 19 30.28 1026 10 16 0.00 0.00
5:52 pm 17:52 Cloudy 42 5.6 31 -0.6 65 65 ENE 10 17 30.27 1025 10 16 0.00 0.00
6:52 pm 18:52 Cloudy 42 5.6 31 -0.6 65 65 ENE 15 24 30.25 1025 10 16 0.00 0.00
7:52 pm 19:52 Cloudy 42 5.6 31 -0.6 65 65 ENE 13 20 30.25 1024 10 16 0.00 0.00
8:52 pm 20:52 Cloudy 42 5.6 31 -0.6 65 65 ENE 12 19 30.23 1024 10 16 0.00 0.00
9:52 pm 21:52 Cloudy 42 5.6 31 -0.6 65 65 E 14 22 30.21 1023 10 16 0.00 0.00
10:52 pm 22:52 Cloudy 42 5.6 31 -0.6 65 65 ENE 13 20 30.17 1022 10 16 0.00 0.00
11:52 pm 23:52 Cloudy 42 5.6 31 -0.6 65 65 ENE 13 20 30.14 1021 10 16 0.00 0.00

Powered by AerisWeather